CW7804 Weather Reports


Display with metric or nautical units.
time (UTC)temp
F
wind
direction
speed
MPH
gust
MPH
rain 1hr
in
rain 24hr
in
rain mn
in
humidity
%
barometer
mb
20190119200045 49 197 2.0 5.0 0.00 0.01 0.01 97 1009.6
20190119193102 49 131 1.0 5.0 0.00 0.01 0.01 96 1010.1
20190119190136 49 134 0.0 3.0 0.00 0.01 0.01 96 1011.1
20190119184516 48 182 0.0 3.0 0.00 0.01 0.01 96 1011.8
20190119183149 48 180 0.0 5.0 0.00 0.01 0.01 96 1011.9
20190119181501 48 175 0.0 2.0 0.00 0.01 0.01 96 1012.6
20190119180133 48 122 0.0 3.0 0.00 0.01 0.01 97 1012.9
20190119174516 48 171 0.0 3.0 0.00 0.01 0.01 97 1013.7
20190119170108 46 198 1.0 3.0 0.01 0.01 0.01 97 1015.6
20190119163131 46 157 1.0 3.0 0.01 0.01 0.01 97 1016.1
20190119161701 46 184 0.0 3.0 0.00 0.00 0.00 97 1016.5
20190119160023 45 119 0.0 2.0 0.00 0.00 0.00 97 1016.5
20190119153213 45 65 0.0 1.0 0.00 0.00 0.00 96 1016.9
20190119151604 45 64 0.0 0.0 0.00 0.00 0.00 95 1017.4
20190119150210 45 64 0.0 1.0 0.00 0.00 0.00 94 1017.5
20190119144741 44 64 0.0 1.0 0.00 0.00 0.00 93 1017.7
20190119143115 44 64 0.0 0.0 0.00 0.00 0.00 93 1017.6
20190119141649 44 64 0.0 1.0 0.00 0.00 0.00 93 1017.5
20190119140120 43 64 0.0 0.0 0.00 0.00 0.00 94 1017.2
20190119134702 43 64 0.0 0.0 0.00 0.00 0.00 94 1017.5
20190119133135 43 64 0.0 1.0 0.00 0.00 0.00 94 1017.4
20190119131643 42 63 0.0 0.0 0.00 0.00 0.00 95 1017.2
20190119130123 42 63 0.0 0.0 0.00 0.00 0.00 94 1017.6
20190119124604 42 63 0.0 0.0 0.00 0.00 0.00 94 1017.6
20190119123052 42 63 0.0 0.0 0.00 0.00 0.00 94 1017.5
20190119121546 42 63 0.0 0.0 0.00 0.00 0.00 95 1017.7
20190119120133 42 63 0.0 1.0 0.00 0.00 0.00 95 1017.7
20190119114546 42 63 0.0 2.0 0.00 0.00 0.00 95 1017.7
20190119113102 42 183 0.0 0.0 0.00 0.00 0.00 94 1017.8
20190119111557 42 183 0.0 0.0 0.00 0.00 0.00 94 1017.8
20190119110114 42 184 0.0 0.0 0.00 0.00 0.00 93 1017.8
20190119104655 42 184 0.0 0.0 0.00 0.00 0.00 94 1017.9
20190119103052 41 184 0.0 1.0 0.00 0.00 0.00 94 1018.2
20190119101602 41 184 0.0 3.0 0.00 0.00 0.00 94 1018.0
20190119100034 41 83 1.0 3.0 0.00 0.00 0.00 94 1017.8
20190119094641 41 84 0.0 0.0 0.00 0.00 0.00 95 1018.4
20190119093129 41 84 0.0 0.0 0.00 0.00 0.00 95 1018.6
20190119091605 41 84 0.0 0.0 0.00 0.00 0.00 95 1018.6
20190119090040 41 83 0.0 1.0 0.00 0.00 0.00 96 1018.6
20190119084533 41 48 0.0 0.0 0.00 0.00 0.00 97 1018.9
20190119083024 41 48 0.0 0.0 0.00 0.00 0.00 97 1019.2
20190119081531 41 48 0.0 0.0 0.00 0.00 0.00 97 1019.4
20190119080024 41 48 0.0 0.0 0.00 0.00 0.00 97 1019.3
20190119074518 41 48 0.0 0.0 0.00 0.00 0.00 97 1019.5
20190119073017 41 48 0.0 0.0 0.00 0.00 0.00 97 1019.6
20190119071514 41 48 0.0 0.0 0.00 0.00 0.00 97 1019.6
20190119070025 41 48 0.0 0.0 0.00 0.00 0.00 97 1019.8
20190119064525 41 48 0.0 0.0 0.00 0.00 0.00 97 1020.2
20190119063027 41 48 0.0 3.0 0.00 0.00 0.00 98 1020.1
20190119061502 41 39 0.0 1.0 0.00 0.00 0.00 98 1020.3
20190119060147 40 39 0.0 0.0 0.00 0.00 0.00 98 1020.3
20190119054717 40 39 0.0 0.0 0.00 0.00 0.00 97 1020.4
20190119053141 40 39 0.0 0.0 0.00 0.00 0.00 97 1020.5
20190119051710 40 39 0.0 0.0 0.00 0.00 0.00 97 1020.6
20190119050212 40 39 0.0 0.0 0.00 0.00 0.00 97 1020.5
20190119044612 39 39 0.0 0.0 0.00 0.00 0.00 97 1020.7
20190119043154 39 39 0.0 0.0 0.00 0.00 0.00 97 1020.6
20190119041644 39 39 0.0 0.0 0.00 0.00 0.00 97 1020.9
20190119040142 39 39 0.0 0.0 0.00 0.00 0.00 97 1020.7
20190119034629 38 39 0.0 0.0 0.00 0.00 0.00 97 1020.8
20190119033124 38 39 0.0 0.0 0.00 0.00 0.00 97 1020.8
20190119031641 38 39 0.0 1.0 0.00 0.00 0.00 97 1020.6
20190119030222 37 39 0.0 0.0 0.00 0.00 0.00 97 1020.7
20190119024705 37 39 0.0 0.0 0.00 0.00 0.00 97 1020.8
20190119023251 37 39 0.0 0.0 0.00 0.00 0.00 96 1020.7
20190119021638 37 39 0.0 0.0 0.00 0.00 0.00 96 1020.7
20190119020124 37 39 0.0 0.0 0.00 0.00 0.00 95 1020.6
20190119014558 37 39 0.0 0.0 0.00 0.02 0.00 95 1020.4
20190119013039 38 39 0.0 0.0 0.00 0.02 0.00 95 1020.6
20190119011552 38 39 0.0 0.0 0.00 0.02 0.00 95 1020.5
20190119010100 38 39 0.0 0.0 0.00 0.02 0.00 96 1020.4